Regional Weather Roundup
Issued by NWS Charleston, SC

Current Version | Previous Version | Graphics & Text | Print | Product List | Glossary On
Versions: 1 2 3 4 5 6 7 8 9 10 11 12 13 14 15 16 17 18 19 20 21 22 23 24 25 26 27 28 29 30 31 32 33 34 35 36 37 38 39 40 41 42 43 44 45 46 47 48 49 50
000
ASUS42 KCHS 170725
RWRCHS

REGIONAL WEATHER ROUNDUP
NATIONAL WEATHER SERVICE CHARLESTON SC
300 AM EDT WED SEP 17 2014

NOTE: "FAIR" INDICATES FEW OR NO CLOUDS BELOW 12,000 FEET WITH NO
SIGNIFICANT WEATHER AND/OR OBSTRUCTIONS TO VISIBILITY.

NOT ALL STATIONS ARE QUALITY CONTROLLED BY THE NATIONAL
WEATHER SERVICE. USE DATA WITH CAUTION...ESPECIALLY
DEWPOINT OBSERVATIONS.

SCZ027-030-031-034>040-042>050-170800-
...SOUTH CAROLINA...

CITY           SKY/WX    TMP DP  RH WIND       PRES   REMARKS
N CHARLESTON   PTCLDY    73  70  90 N6        29.93F
WATERFRONT PRK   N/A     79 N/A N/A N6          N/A
FORT JOHNSON   NOT AVBL
MOUNT PLEASANT PTSUNNY   72  72 100 CALM      29.92F FOG
JOHNS ISLAND   SUNNY     73  73 100 CALM      29.92F FOG
PINOPOLIS        N/A     75  72  88 CALM      29.88R
MONCKS CORNER    N/A     70  70 100 CALM      29.93F FOG
SUMMERVILLE    NOT AVBL
BEAUFORT MCAS  MOCLDY    75  73  93 W6        29.91F
BEAUFORT ARPT  PTSUNNY   73  73 100 N5        29.91S
HILTON HEAD IS MOCLDY    73  73 100 CALM      29.92F FOG
GEORGETOWN     NOT AVBL
WALTERBORO     FOG       72 N/A N/A CALM      29.92F VSB 1/4
ORANGEBURG     CLOUDY    71  68  90 E5        29.96R
BARNWELL       FAIR      72  70  94 NW3       29.94S
AIKEN          FAIR      68  68 100 CALM      29.97F
MANNING        CLOUDY    70 N/A N/A N6        29.95S
KINGSTREE      NOT AVBL
COLUMBIA       LGT RAIN  74  68  81 NE6       29.95S
SUMTER         CLOUDY    70  64  83 N13       29.95S
FLORENCE       CLOUDY    69  65  86 S5        29.97F
MYRTLE BEACH   MOCLDY    73  70  88 N12       29.94F
N MYRTLE BEACH LGT RAIN  70  65  84 N10       29.94F

$$

GAZ063-065-086>088-099>101-113>116-118-119-134-136>141-150-170800-
...GEORGIA...

CITY           SKY/WX    TMP DP  RH WIND       PRES   REMARKS
SAVANNAH ARPT  PTCLDY    70  67  90 CALM      29.92F
HUNTER AAF     PTCLDY    69  69 100 W1        29.90F
FORT STEWART   MOCLDY    72  69  89 W5        29.90F
STATESBORO     NOT AVBL
SYLVANIA       MOSUNNY   72  72  99 CALM      29.93F FOG
CLAXTON        FAIR     N/A N/A N/A CALM      29.92F
THOMSON        CLEAR     69  69 100 CALM      29.99F
AUGUSTA-BUSH   PTCLDY    71  70  96 SE6       29.93S
AUGUSTA-DANIEL PTCLDY    73  71  93 W5        29.94F
SWAINSBORO     FAIR      70  70 100 NW3       29.93F
VIDALIA        PTCLDY    70  70 100 W3        29.93F
ALMA           PTCLDY    71  70  96 CALM      29.93F
WAYCROSS       MOCLDY    73  73  99 SW3       29.92F
JESUP          FAIR      72  72 100 CALM      29.92S
BRUNSWICK      MOCLDY    73  70  88 W3        29.91F
SAINT SIMONS   MOCLDY    74  72  93 W7        29.91F

$$

SCZ027-028-034-036>038-045-046-048>050-GAZ119-141-170800-
...LAKE AND SUPPLEMENTAL COASTAL OBSERVATIONS...

STATION/POSITION TIME  TEMP    WIND        PRES    WAVE   SWELL
                       AIR SEA DIR/SP/G            HT/PER HT/PER/DIR
                 (UTC) (F)     (DEG/KT/KT) (MB)    (FT/S) (FT/S/D)
UPR LAKE MARION  NOT AVBL
WINYAH BAY       0600   71     330/  4     1014.0S
LAKE MURRAY      0700   72      40/  3/  7 1013.9S
ACE BASIN NERRS  0700   72        CALM     1013.0S
FORT PULASKI     0700   72     320/  4/  5 1013.0F
SAPELO ISLAND    0600   74     310/  5     1013.0F

$$

ANZ835-935-AMZ111-154-330-350-352-354-374-450-454-472-170800-
...C-MAN AND BUOY OBSERVATIONS...

STATION/POSITION TIME  TEMP    WIND        PRES    WAVE   SWELL
                       AIR SEA DIR/SP/G            HT/PER HT/PER/DIR
                 (UTC) (F)     (DEG/KT/KT) (MB)    (FT/S) (FT/S/D)
FOLLY BEACH CMAN 0700   78      70/  2/  2 1013.3F
BUOY 41004       0700   79 83  200/  6/  6 1012.4F   2/13   2/13
BUOY 41008       0700   78 84  320/  6/  8 1012.3F   1/13   2/100/13
5E ST. MARYS GA  0700      83                N/A     2/13   2/ 90/13
FRYING PAN BUOY  NOT AVBL
BUOY 41025       0700   76      20/  8/ 12 1013.5F   3/13   2/100/13
CAPE LOOKOUT NC  0700   72     290/  4/  7 1013.3F
BUOY 41002       0551   79 82  210/  8/ 10 1013.3    5/14   5/110/14
BUOY 41010       0700   77 85  240/ 12/ 14 1013.8F   3/12   2/140/12
BUOY 41012       NOT AVBL
ST AUGUSTINE FL  0700   73     270/  5/  7 1014.0F
CAPERS NEARSHORE 0600   78     180/  4/  4   N/A
FRIPP NEARSHORE  NOT AVBL


$$


USA.gov is the U.S. government's official web portal to all federal, state and local government web resources and services.